Wichita, KS

4:45 AM CST on February 25, 2017 (GMT -0600)
Col Jabara

Weather History for KAAO - March, 2013

Change the Weather History Date:

Monday, March 4, 2013

  Actual Average (KIAB) Record (KIAB)
Temperature  
Mean Temperature 40 °F -  
Max Temperature 46 °F 49 °F 73 °F (2005)
Min Temperature 35 °F 27 °F 5 °F (2002)
Degree Days  
Heating Degree Days 24    
Moisture  
Dew Point 34 °F    
Average Humidity 77    
Maximum Humidity 100    
Minimum Humidity 63    
Precipitation  
Precipitation 0.03 in - - ()
Sea Level Pressure  
Sea Level Pressure 29.77 in    
Wind  
Wind Speed 13 mph (North)    
Max Wind Speed 25 mph    
Max Gust Speed 36 mph    
Visibility 10 miles    
Events Rain    
Averages and records for this station are not official NWS values.
T = Trace of Precipitation, MM = Missing Value Source: NWS Daily Summary

Daily Weather History Graph

Daily Weather History Graph

Search for Another Location

Airport or City:

Trip Planner

Search our weather history database for the weather conditions in past years. The results will help you decide how hot, cold, wet, or windy it might be!

Date:

Astronomy

Mar. 04, 2013 Rise Set
Actual Time 6:55 AM CST 6:25 PM CST
Civil Twilight 6:29 AM CST 6:52 PM CST
Nautical Twilight 5:59 AM CST 7:22 PM CST
Astronomical Twilight 5:28 AM CST 7:52 PM CST
Moon 1:02 AM CST (3/4) 11:13 AM CST (3/4)
Length of Visible Light 12h 22m
Length of Day
11h 30m
Waning Gibbous, 52% of the Moon is Illuminated
Mar 4
Waning Gibbous
Mar 4
Last Quarter
Mar 11
New
Mar 19
First Quarter
Mar 27
Full

Hourly Weather History & Observations

Time (CST) Temp. Windchill Dew Point Humidity Pressure Visibility Wind Dir Wind Speed Gust Speed Precip Events Conditions
12:54 AM 44.1 °F 38.1 °F 32.0 °F 63% 29.61 in 10.0 mi SSE 11.5 mph - N/A   Clear
1:54 AM 44.1 °F 40.8 °F 32.0 °F 63% 29.61 in 10.0 mi East 5.8 mph - N/A   Clear
2:54 AM 42.1 °F 38.4 °F 32.0 °F 67% 29.60 in 10.0 mi East 5.8 mph - N/A   Clear
3:54 AM 39.9 °F 36.7 °F 30.9 °F 70% 29.58 in 10.0 mi East 4.6 mph - N/A   Clear
4:54 AM 37.9 °F 34.4 °F 30.9 °F 76% 29.58 in 10.0 mi ENE 4.6 mph - N/A   Clear
5:54 AM 37.0 °F 31.6 °F 30.0 °F 76% 29.60 in 10.0 mi ENE 6.9 mph - N/A   Clear
6:54 AM 35.1 °F 29.3 °F 28.9 °F 78% 29.63 in 10.0 mi NNW 6.9 mph - N/A   Clear
7:54 AM 36.0 °F 30.3 °F 30.0 °F 79% 29.64 in 10.0 mi NNE 6.9 mph - N/A   Clear
8:54 AM 39.0 °F 34.8 °F 32.0 °F 76% 29.65 in 10.0 mi North 5.8 mph - N/A   Clear
9:54 AM 42.1 °F 38.4 °F 33.1 °F 70% 29.67 in 10.0 mi North 5.8 mph - N/A   Clear
10:54 AM 43.0 °F 38.8 °F 34.0 °F 71% 29.68 in 10.0 mi North 6.9 mph - N/A   Clear
11:54 AM 42.1 °F 33.6 °F 34.0 °F 73% 29.71 in 10.0 mi North 18.4 mph 27.6 mph N/A   Clear
12:54 PM 45.0 °F 37.1 °F 37.0 °F 74% 29.70 in 10.0 mi North 19.6 mph 27.6 mph N/A   Clear
1:19 PM 44.6 °F 35.9 °F 37.4 °F 76% 29.67 in 10.0 mi NNW 23.0 mph - N/A   Mostly Cloudy
1:54 PM 44.1 °F 35.2 °F 37.0 °F 76% 29.70 in 10.0 mi North 23.0 mph 27.6 mph N/A   Mostly Cloudy
2:54 PM 45.0 °F 37.1 °F 37.0 °F 74% 29.71 in 10.0 mi North 19.6 mph - N/A   Mostly Cloudy
3:22 PM 44.6 °F 36.9 °F 37.4 °F 76% 29.70 in 10.0 mi North 18.4 mph - N/A   Scattered Clouds
3:44 PM 44.6 °F 36.4 °F 37.4 °F 76% 29.71 in 10.0 mi NNW 20.7 mph - N/A   Mostly Cloudy
3:54 PM 46.0 °F 38.8 °F 37.0 °F 71% 29.74 in 10.0 mi North 18.4 mph 24.2 mph N/A   Mostly Cloudy
4:21 PM 44.6 °F 37.4 °F 35.6 °F 71% 29.73 in 10.0 mi NNW 16.1 mph - N/A   Scattered Clouds
4:54 PM 43.0 °F 35.1 °F 36.0 °F 76% 29.78 in 10.0 mi North 17.3 mph - N/A   Partly Cloudy
5:54 PM 41.0 °F 33.5 °F 35.1 °F 79% 29.84 in 10.0 mi North 13.8 mph - N/A   Overcast
6:46 PM 41.0 °F 31.1 °F 33.8 °F 76% 29.85 in 10.0 mi North 23.0 mph 26.5 mph N/A   Overcast
6:54 PM 39.9 °F 30.5 °F 34.0 °F 79% 29.89 in 10.0 mi North 19.6 mph - N/A   Overcast
7:39 PM 39.2 °F 29.0 °F 33.8 °F 81% 29.89 in 10.0 mi North 21.9 mph 31.1 mph N/A   Mostly Cloudy
7:54 PM 39.9 °F 29.2 °F 33.1 °F 77% 29.93 in 10.0 mi North 25.3 mph 35.7 mph N/A   Overcast
8:54 PM 39.0 °F 28.0 °F 33.1 °F 79% 29.98 in 10.0 mi North 25.3 mph 35.7 mph 0.00 in Rain Light Rain
9:54 PM 37.9 °F 27.1 °F 34.0 °F 86% 30.06 in 10.0 mi North 23.0 mph 31.1 mph 0.00 in Rain Light Rain
10:11 PM 37.4 °F 26.6 °F 33.8 °F 87% 30.03 in 8.0 mi North 21.9 mph - 0.01 in Rain Light Rain
10:51 PM 35.6 °F 26.2 °F 35.6 °F 100% 30.02 in 10.0 mi North 15.0 mph 25.3 mph 0.03 in   Overcast
10:54 PM 36.0 °F 26.3 °F 36.0 °F 100% 30.05 in 10.0 mi North 16.1 mph - 0.03 in   Overcast
11:54 PM 37.0 °F 28.5 °F 36.0 °F 96% 30.07 in 10.0 mi NNW 13.8 mph - N/A   Overcast